sat.trackr.live / text

‹ back to catalog

STARLINK-37253

NORAD 68606 · 2026-073E

PAYLOAD ACTIVE UNKNOWN

§ Identity

Operator
Country
US
Launch date
2026-04-07
Launch site
AFWTR
Launch vehicle
Mass (kg)
RCS (m²)

Purposes: comms

External: N2YO · Heavens-Above · Gunter

§ Orbital elements

Epoch: 2026-09-19T23:28:41.828160Z

Period
93.91 min
Inclination
97.2868°
Eccentricity
0.0001679
Mean motion
15.33448964 rev/d
Perigee alt
464.4 km
Apogee alt
466.7 km
Semi-major
6,843.7 km
B*
3.6312e-4
RAAN
101.0471°
Arg perigee
95.4018°
Mean anomaly
264.7417°
Rev number
2,566

§ Raw data

STARLINK-372531 68606U 26073E   26262.97826190  .00011668  00000+0  36312-3 0  99932 68606  97.2868 101.0471 0001679  95.4018 264.7417 15.33448964 25669

JSON: /api/v1/satellites/68606 · /tle

For live sub-satellite position, see the globe view (requires WebGL).

§ Visibility from observer

Set your observer location to see the next 7 days of passes ≥ 10°. The values pass through the URL so the page stays shareable.

No JS? Fill the form by hand. The geolocation button needs JavaScript.